N7DTY Weather Reports


time (UTC)temp
C
wind
direction
speed
KPH
gust
KPH
rain 1hr
cm
rain 24hr
cm
rain mn
cm
humidity
%
barometer
mb
20260905210022 20 189 3.2 6.4 0.00 0.00 0.00 64 1016.9
20260905204519 20 195 1.6 9.7 0.00 0.00 0.00 68 1017.1
20260905203016 19 178 1.6 12.9 0.00 0.00 0.00 73 1017.2
20260905201514 18 282 1.6 8.0 0.00 0.00 0.00 77 1017.2
20260905200013 17 215 1.6 8.0 0.00 0.00 0.00 75 1017.4
20260905194512 17 180 3.2 8.0 0.00 0.00 0.00 77 1017.4
20260905193010 18 286 1.6 6.4 0.00 0.00 0.00 77 1017.5
20260905191509 18 246 1.6 8.0 0.00 0.00 0.00 77 1017.6
20260905190005 17 199 1.6 8.0 0.00 0.00 0.00 79 1017.6
20260905184502 17 215 3.2 9.7 0.00 0.00 0.00 81 1017.8
20260905183059 17 190 3.2 8.0 0.00 0.00 0.00 79 1017.7
20260905181556 16 191 1.6 9.7 0.00 0.00 0.00 82 1017.9
20260905174554 16 184 3.2 9.7 0.00 0.00 0.00 81 1017.8
20260905173058 16 148 0.0 6.4 0.00 0.00 0.00 83 1017.7
20260905171541 15 170 1.6 6.4 0.00 0.00 0.00 85 1017.7
20260905170040 15 105 4.8 11.3 0.00 0.00 0.00 85 1017.8
20260905164536 15 150 0.0 4.8 0.00 0.00 0.00 87 1017.9
20260905163033 14 238 0.0 3.2 0.00 0.00 0.00 89 1018.0
20260905161532 14 195 0.0 3.2 0.00 0.00 0.00 90 1017.7
20260905160033 13 195 0.0 3.2 0.00 0.00 0.00 91 1017.7
20260905154525 13 195 0.0 1.6 0.00 0.00 0.00 92 1017.6
20260905153023 13 188 0.0 8.0 0.00 0.00 0.00 92 1017.5
20260905151521 13 181 0.0 1.6 0.00 0.00 0.00 93 1017.4
20260905150020 13 259 0.0 3.2 0.00 0.00 0.00 94 1017.4
20260905144514 13 259 0.0 0.0 0.00 0.00 0.00 94 1017.6
20260905143013 12 259 0.0 1.6 0.00 0.00 0.00 94 1017.6
20260905141523 12 259 0.0 1.6 0.00 0.00 0.00 94 1017.5
20260905140012 12 259 0.0 0.0 0.00 0.00 0.00 93 1017.3
20260905134509 12 259 0.0 1.6 0.00 0.00 0.00 94 1017.3
20260905133006 12 259 0.0 0.0 0.00 0.00 0.00 93 1017.2
20260905131506 12 259 0.0 0.0 0.00 0.00 0.00 93 1017.1
20260905130006 12 259 0.0 1.6 0.00 0.00 0.00 93 1017.1
20260905124510 12 259 0.0 1.6 0.00 0.00 0.00 94 1017.1
20260905123006 12 259 0.0 0.0 0.00 0.00 0.00 93 1017.0
20260905121502 12 259 0.0 0.0 0.00 0.00 0.00 93 1016.9
20260905120002 12 259 0.0 1.6 0.00 0.00 0.00 93 1016.8
20260905114501 12 259 1.6 3.2 0.00 0.00 0.00 93 1016.8
20260905113100 12 259 0.0 0.0 0.00 0.00 0.00 93 1016.9
20260905113001 12 259 0.0 1.6 0.00 0.00 0.00 93 1016.8
20260905111600 12 259 1.6 3.2 0.00 0.00 0.00 93 1016.9
20260905110111 12 259 0.0 3.2 0.00 0.00 0.00 93 1016.8
20260905104559 12 258 0.0 0.0 0.00 0.00 0.00 93 1016.6
20260905103059 11 258 0.0 0.0 0.00 0.00 0.00 93 1016.7
20260905101607 11 258 0.0 0.0 0.00 0.00 0.00 92 1016.7
20260905100057 12 258 0.0 0.0 0.00 0.00 0.00 92 1016.5
20260905094555 12 258 0.0 0.0 0.00 0.00 0.00 92 1016.5
20260905093057 12 258 0.0 0.0 0.00 0.00 0.00 92 1016.6
20260905091603 12 258 0.0 0.0 0.00 0.00 0.00 92 1016.5
20260905090051 12 258 0.0 1.6 0.00 0.00 0.00 92 1016.4
20260905084550 12 258 0.0 1.6 0.00 0.00 0.00 92 1016.3
20260905083049 12 258 0.0 1.6 0.00 0.00 0.00 92 1016.3
20260905081548 12 258 0.0 1.6 0.00 0.00 0.00 91 1016.3
20260905080050 12 258 0.0 0.0 0.00 0.00 0.00 91 1016.3
20260905074546 12 258 0.0 0.0 0.00 0.00 0.00 91 1016.2
20260905073044 12 258 0.0 0.0 0.00 0.00 0.00 91 1016.4
20260905071543 12 258 0.0 0.0 0.00 0.00 0.00 90 1016.2
20260905070044 12 258 0.0 0.0 0.00 0.00 0.00 91 1016.1
20260905064543 12 258 0.0 0.0 0.00 0.00 0.00 90 1015.9
20260905063041 13 258 0.0 1.6 0.00 0.00 0.00 90 1015.8
20260905061538 13 258 0.0 0.0 0.00 0.00 0.00 91 1015.6
20260905060038 13 258 0.0 1.6 0.00 0.00 0.00 90 1015.7
20260905054549 13 258 0.0 1.6 0.00 0.00 0.00 90 1015.8
20260905053036 13 258 0.0 0.0 0.00 0.00 0.00 90 1015.8
20260905051536 13 258 0.0 1.6 0.00 0.00 0.00 90 1015.9
20260905050034 13 258 0.0 0.0 0.00 0.00 0.00 90 1015.9
20260905044535 13 258 0.0 0.0 0.00 0.00 0.00 89 1016.1
20260905043034 13 258 0.0 0.0 0.00 0.00 0.00 89 1016.0
20260905041533 13 258 0.0 0.0 0.00 0.00 0.00 88 1015.9
20260905040041 13 258 0.0 0.0 0.00 0.00 0.00 87 1015.9
20260905034533 13 258 0.0 0.0 0.00 0.00 0.00 85 1015.7
20260905033031 14 258 0.0 0.0 0.00 0.00 0.00 84 1015.6
20260905031530 14 258 0.0 0.0 0.00 0.00 0.00 82 1015.4
20260905030028 15 258 0.0 0.0 0.00 0.00 0.00 81 1015.2
20260905024526 15 258 0.0 0.0 0.00 0.00 0.00 80 1014.8
20260905023026 16 258 0.0 1.6 0.00 0.00 0.00 79 1014.8
20260905021525 16 256 0.0 0.0 0.00 0.00 0.00 80 1014.7
20260905020028 16 256 0.0 1.6 0.00 0.00 0.00 80 1014.7
20260905014521 17 257 0.0 6.4 0.00 0.00 0.00 77 1014.5
20260905013020 17 244 0.0 1.6 0.00 0.00 0.00 68 1014.4
20260905011520 18 346 1.6 4.8 0.00 0.00 0.00 66 1014.3
20260905010022 18 291 0.0 4.8 0.00 0.00 0.00 65 1014.3
20260905004517 18 22 0.0 4.8 0.00 0.00 0.00 66 1014.1
20260905003018 18 30 0.0 6.4 0.00 0.00 0.00 69 1014.1
20260905001516 18 290 0.0 4.8 0.00 0.00 0.00 67 1014.0
20260905000016 18 216 0.0 4.8 0.00 0.00 0.00 69 1014.0
20260904234516 18 167 0.0 3.2 0.00 0.00 0.00 68 1014.0
20260904233016 17 320 0.0 6.4 0.00 0.00 0.00 68 1013.9
20260904231514 17 331 1.6 8.0 0.00 0.00 0.00 70 1014.0
20260904230020 17 338 1.6 8.0 0.00 0.00 0.00 70 1014.1
20260904224522 18 100 3.2 9.7 0.00 0.00 0.00 69 1014.0
20260904223012 18 117 0.0 6.4 0.00 0.00 0.00 67 1014.0
20260904221516 18 163 1.6 6.4 0.00 0.00 0.00 64 1014.0
20260904220012 19 228 0.0 9.7 0.00 0.00 0.00 64 1014.1
20260904214517 19 51 0.0 6.4 0.00 0.00 0.00 68 1014.0
20260904213013 20 128 1.6 11.3 0.00 0.00 0.00 62 1013.9
20260904211509 18 186 3.2 8.0 0.00 0.00 0.00 69 1013.9